EW9027 Weather Reports


Display with metric or nautical units.
time (UTC)temp
F
wind
direction
speed
MPH
gust
MPH
rain 1hr
in
rain 24hr
in
rain mn
in
humidity
%
barometer
mb
20260505041529 51 195 0.0 2.0 0.00 0.00 0.00 75 1008.9
20260505040029 51 262 0.0 1.0 0.00 0.00 0.00 74 1008.7
20260505034528 52 199 0.0 2.0 0.00 0.00 0.00 73 1008.6
20260505033027 51 258 0.0 2.0 0.00 0.00 0.00 74 1008.6
20260505031539 52 44 0.0 1.0 0.00 0.00 0.00 74 1008.7
20260505030022 53 39 0.0 1.0 0.00 0.00 0.00 71 1008.9
20260505024532 52 46 1.0 2.0 0.00 0.00 0.00 71 1009.0
20260505023017 53 214 0.0 0.0 0.00 0.00 0.00 72 1009.1
20260505021518 54 214 0.0 1.0 0.00 0.00 0.00 71 1009.3
20260505020025 54 304 0.0 1.0 0.00 0.00 0.00 67 1009.4
20260505014512 54 38 0.0 2.0 0.00 0.00 0.00 69 1009.5
20260505013009 54 23 0.0 2.0 0.00 0.00 0.00 70 1009.7
20260505011508 55 232 0.0 1.0 0.00 0.00 0.00 69 1009.9
20260505010005 55 231 0.0 2.0 0.00 0.00 0.00 67 1009.8
20260505004502 56 223 0.0 2.0 0.00 0.00 0.00 65 1009.9
20260505003058 56 205 0.0 1.0 0.00 0.00 0.00 65 1010.1
20260505001559 57 257 0.0 1.0 0.00 0.00 0.00 63 1010.5
20260505000113 58 254 0.0 1.0 0.00 0.00 0.00 61 1010.6
20260504234550 59 252 0.0 1.0 0.00 0.00 0.00 59 1010.9
20260504233048 60 251 0.0 1.0 0.00 0.00 0.00 57 1010.9
20260504231546 61 54 0.0 2.0 0.00 0.00 0.00 55 1010.9
20260504230100 62 76 0.0 2.0 0.00 0.00 0.00 51 1011.1
20260504224541 61 258 0.0 1.0 0.00 0.00 0.00 56 1011.1
20260504223039 63 257 0.0 1.0 0.00 0.00 0.00 55 1011.1
20260504221549 63 227 0.0 3.0 0.00 0.00 0.00 47 1011.3
20260504220034 62 229 0.0 1.0 0.00 0.00 0.00 58 1011.2
20260504214535 63 229 0.0 1.0 0.00 0.00 0.00 55 1011.2
20260504213034 63 257 0.0 1.0 0.00 0.00 0.00 49 1011.1
20260504211530 63 283 0.0 2.0 0.00 0.00 0.00 48 1011.1
20260504210030 62 259 0.0 1.0 0.00 0.00 0.00 56 1011.3
20260504204529 62 269 0.0 1.0 0.00 0.00 0.00 56 1011.3
20260504203030 62 269 0.0 2.0 0.00 0.00 0.00 57 1011.3
20260504201529 63 311 0.0 1.0 0.00 0.00 0.00 55 1011.2
20260504200028 63 22 0.0 1.0 0.00 0.00 0.00 57 1011.3
20260504194528 64 320 0.0 1.0 0.00 0.00 0.00 56 1011.5
20260504193028 65 93 0.0 1.0 0.00 0.00 0.00 55 1011.6
20260504191526 66 94 0.0 1.0 0.00 0.00 0.00 50 1011.5
20260504190026 67 108 0.0 1.0 0.00 0.00 0.00 50 1011.4
20260504184525 68 160 0.0 3.0 0.00 0.00 0.00 50 1011.2
20260504183025 69 113 0.0 3.0 0.00 0.00 0.00 50 1011.0
20260504181528 69 112 0.0 3.0 0.00 0.00 0.00 51 1011.1
20260504180023 70 96 1.0 3.0 0.00 0.00 0.00 51 1011.1
20260504174523 71 56 1.0 3.0 0.00 0.00 0.00 47 1011.1
20260504173022 72 102 1.0 4.0 0.00 0.00 0.00 44 1011.1
20260504171522 73 60 2.0 4.0 0.00 0.00 0.00 42 1011.2
20260504081521 63 219 1.0 3.0 0.00 0.00 0.00 53 1014.6
20260504050107 53 57 0.0 1.0 0.00 0.00 0.00 64 1014.0
20260504044602 52 56 0.0 0.0 0.00 0.00 0.00 67 1013.9